Вернуться в каталог

COSMOS 1818 COOLANT

LostLEO
NORAD 50784·DEBRIS·🇷🇺 Russia

Запущен Feb 1, 1987 с Baikonur Cosmodrome

Loading…

Ближайшие Пролёты (ближайшие 24 часа)

TLE

УстаревшееSource: Space-Track

Эпоха: Oct 19, 2022, 14:02 UTC

1 50784U 87011AZ  22292.58521041  .00000545  00000-0  22931-3 0  9998
2 50784  65.0199   2.1557 0012472 264.8554 164.9040 14.34319668527807

Отслеживайте COSMOS 1818 COOLANT в реальном времени с AllMySat

Download on the App Store